BON371 FAOR-FOOL

Flight info

Callsign BON371
Flight time 4h 27m
Altitude 24000
Route VASUR3A VASUR UZ21 ITROL Q25 RUDAS/N0481F340 UT941 TIBUK/N0477F360 UT941 VNA UR526 PILVI PILVI2L
Aircraft A343/H-SDE2E3FGHIJ4J5M1RWXY/LB1D1

Departure

Time 2026-04-21 11:43
Airport O.R. Tambo International Airport (FAOR)

Arrival

Time 2026-04-21 16:11
Airport Libreville Leon M'ba International Airport (FOOL)
Time Latitude Longitude Altitude Speed Heading
2026-04-21 11:31 -26.13025 28.23371 5550 ft 4 kts 322°
2026-04-21 11:31 -26.13045 28.23389 5553 ft 4 kts 319°
2026-04-21 11:32 -26.13063 28.23408 5550 ft 3 kts 322°
2026-04-21 11:32 -26.13079 28.23419 5554 ft 3 kts 342°
2026-04-21 11:32 -26.13095 28.23423 5550 ft 3 kts
2026-04-21 11:32 -26.13115 28.23421 5553 ft 4 kts 14°
2026-04-21 11:33 -26.13138 28.23415 5552 ft 3 kts 13°
2026-04-21 11:33 -26.13150 28.23413 5550 ft 2 kts
2026-04-21 11:33 -26.13161 28.23411 5550 ft 2 kts
2026-04-21 11:33 -26.13172 28.23409 5550 ft 2 kts
2026-04-21 11:34 -26.13173 28.23409 5555 ft 0 kts
2026-04-21 11:37 -26.13154 28.23414 5550 ft 6 kts 17°
2026-04-21 11:37 -26.13119 28.23472 5550 ft 12 kts 82°
2026-04-21 11:37 -26.13121 28.23568 5549 ft 12 kts 96°
2026-04-21 11:37 -26.13131 28.23659 5552 ft 11 kts 98°
2026-04-21 11:38 -26.13150 28.23680 5550 ft 5 kts 154°
2026-04-21 11:38 -26.13194 28.23680 5550 ft 8 kts 188°
2026-04-21 11:38 -26.13273 28.23657 5554 ft 14 kts 195°
2026-04-21 11:38 -26.13378 28.23624 5556 ft 18 kts 195°
2026-04-21 11:39 -26.13512 28.23582 5558 ft 22 kts 195°
2026-04-21 11:39 -26.13668 28.23534 5556 ft 25 kts 195°
2026-04-21 11:39 -26.13836 28.23482 5563 ft 26 kts 195°
2026-04-21 11:39 -26.14019 28.23426 5566 ft 28 kts 195°
2026-04-21 11:40 -26.14202 28.23369 5568 ft 27 kts 195°
2026-04-21 11:40 -26.14366 28.23317 5569 ft 24 kts 195°
2026-04-21 11:40 -26.14522 28.23276 5567 ft 22 kts 180°
2026-04-21 11:40 -26.14609 28.23359 5571 ft 15 kts 111°
2026-04-21 11:41 -26.14626 28.23422 5570 ft 0 kts 103°
2026-04-21 11:41 -26.14618 28.23440 5569 ft 5 kts 50°
2026-04-21 11:41 -26.14587 28.23453 5570 ft 4 kts 18°
2026-04-21 11:41 -26.14559 28.23462 5569 ft 4 kts 14°
2026-04-21 11:42 -26.14529 28.23471 5570 ft 5 kts 14°
2026-04-21 11:42 -26.14418 28.23504 5569 ft 37 kts 15°
2026-04-21 11:42 -26.13993 28.23635 5568 ft 90 kts 15°
2026-04-21 11:42 -26.13231 28.23872 5554 ft 136 kts 15°
2026-04-21 11:43 -26.12197 28.24194 5547 ft 172 kts 15°
2026-04-21 11:43 -26.11059 28.24551 6034 ft 168 kts 13°
2026-04-21 11:43 -26.09859 28.24945 6258 ft 190 kts 14°
2026-04-21 11:43 -26.08574 28.25328 6773 ft 195 kts
2026-04-21 11:44 -26.07198 28.25158 7038 ft 206 kts 333°
2026-04-21 11:44 -26.06157 28.24032 7195 ft 219 kts 298°
2026-04-21 11:44 -26.05526 28.22419 7379 ft 238 kts 291°
2026-04-21 11:44 -26.04923 28.20627 7587 ft 257 kts 291°
2026-04-21 11:45 -26.04271 28.18723 7951 ft 269 kts 292°
2026-04-21 11:45 -26.03383 28.16908 8430 ft 274 kts 309°
2026-04-21 11:45 -26.01942 28.15542 9024 ft 275 kts 330°
2026-04-21 11:45 -26.00255 28.14522 9602 ft 277 kts 333°
2026-04-21 11:46 -25.98507 28.13532 10242 ft 280 kts 333°
2026-04-21 11:46 -25.96775 28.12556 10697 ft 288 kts 332°
2026-04-21 11:46 -25.94921 28.11499 10973 ft 303 kts 332°
2026-04-21 11:46 -25.93029 28.10413 11252 ft 317 kts 332°
2026-04-21 11:47 -25.90997 28.09247 11538 ft 331 kts 332°
2026-04-21 11:47 -25.88916 28.08048 11808 ft 344 kts 331°
2026-04-21 11:47 -25.86764 28.06809 12135 ft 353 kts 331°
2026-04-21 11:47 -25.84595 28.05560 12595 ft 357 kts 331°
2026-04-21 11:48 -25.82380 28.04284 13131 ft 359 kts 331°
2026-04-21 11:48 -25.80147 28.03001 13597 ft 363 kts 331°
2026-04-21 11:48 -25.77902 28.01712 14122 ft 364 kts 331°
2026-04-21 11:48 -25.75646 28.00419 14674 ft 366 kts 330°
2026-04-21 11:49 -25.73380 27.99118 15166 ft 368 kts 330°
2026-04-21 11:49 -25.71102 27.97812 15699 ft 369 kts 330°
2026-04-21 11:49 -25.68814 27.96500 16203 ft 371 kts 330°
2026-04-21 11:49 -25.66515 27.95182 16710 ft 373 kts 330°
2026-04-21 11:50 -25.64205 27.93860 17203 ft 375 kts 330°
2026-04-21 11:50 -25.61887 27.92533 17708 ft 376 kts 330°
2026-04-21 11:50 -25.59557 27.91199 18157 ft 378 kts 330°
2026-04-21 11:50 -25.57226 27.89828 18592 ft 380 kts 327°
2026-04-21 11:51 -25.55011 27.88230 19026 ft 381 kts 322°
2026-04-21 11:51 -25.52875 27.86477 19416 ft 384 kts 321°
2026-04-21 11:51 -25.50767 27.84649 19823 ft 386 kts 320°
2026-04-21 11:51 -25.48668 27.82784 20263 ft 388 kts 320°
2026-04-21 11:52 -25.46561 27.80904 20687 ft 389 kts 319°
2026-04-21 11:52 -25.44441 27.79019 21042 ft 392 kts 320°
2026-04-21 11:52 -25.42304 27.77133 21401 ft 394 kts 320°
2026-04-21 11:52 -25.40146 27.75240 21736 ft 397 kts 320°
2026-04-21 11:53 -25.37970 27.73339 22103 ft 399 kts 320°
2026-04-21 11:53 -25.35784 27.71436 22462 ft 401 kts 320°
2026-04-21 11:53 -25.33587 27.69525 22823 ft 403 kts 320°
2026-04-21 11:53 -25.31378 27.67605 23146 ft 405 kts 320°
2026-04-21 11:54 -25.29156 27.65674 23491 ft 407 kts 320°
2026-04-21 11:54 -25.26922 27.63734 23825 ft 409 kts 320°
2026-04-21 11:54 -25.24678 27.61785 24148 ft 411 kts 320°
2026-04-21 11:54 -25.22425 27.59830 24420 ft 414 kts 320°
2026-04-21 11:55 -25.20158 27.57862 24704 ft 416 kts 320°
2026-04-21 11:55 -25.17878 27.55885 25006 ft 417 kts 320°
2026-04-21 11:55 -25.15591 27.53902 25259 ft 420 kts 320°
2026-04-21 11:55 -25.13286 27.51904 25587 ft 422 kts 320°
2026-04-21 11:56 -25.10984 27.49911 25882 ft 423 kts 320°
2026-04-21 11:56 -25.08649 27.47891 26199 ft 425 kts 320°
2026-04-21 11:56 -25.06324 27.45881 26485 ft 426 kts 320°
2026-04-21 11:56 -25.03986 27.43859 26732 ft 428 kts 320°
2026-04-21 11:57 -25.01655 27.41806 26972 ft 429 kts 317°
2026-04-21 11:57 -24.99398 27.39640 27244 ft 431 kts 316°
2026-04-21 11:57 -24.97212 27.37443 27506 ft 431 kts 315°
2026-04-21 11:57 -24.95007 27.35199 27728 ft 433 kts 315°
2026-04-21 11:58 -24.92781 27.32944 27967 ft 435 kts 315°
2026-04-21 11:58 -24.90540 27.30697 28208 ft 437 kts 316°
2026-04-21 11:58 -24.88282 27.28453 28472 ft 438 kts 316°
2026-04-21 11:58 -24.86011 27.26212 28709 ft 439 kts 316°
2026-04-21 11:59 -24.83726 27.23966 28892 ft 441 kts 316°
2026-04-21 11:59 -24.81430 27.21714 29095 ft 443 kts 316°
2026-04-21 11:59 -24.79127 27.19458 29330 ft 444 kts 316°
2026-04-21 11:59 -24.76826 27.17204 29643 ft 442 kts 316°
2026-04-21 12:00 -24.74531 27.14956 29902 ft 442 kts 316°
2026-04-21 12:00 -24.72235 27.12709 30211 ft 440 kts 316°
2026-04-21 12:00 -24.69951 27.10475 30550 ft 438 kts 316°
2026-04-21 12:00 -24.67678 27.08252 30846 ft 437 kts 316°
2026-04-21 12:01 -24.65417 27.06041 31164 ft 435 kts 316°
2026-04-21 12:01 -24.63158 27.03833 31452 ft 434 kts 316°
2026-04-21 12:01 -24.60908 27.01636 31739 ft 432 kts 316°
2026-04-21 12:01 -24.58660 26.99442 31979 ft 431 kts 316°
2026-04-21 12:02 -24.56420 26.97255 32245 ft 430 kts 316°
2026-04-21 12:02 -24.51962 26.92906 32765 ft 427 kts 316°
2026-04-21 12:02 -24.49744 26.90744 33028 ft 425 kts 316°
2026-04-21 12:03 -24.47535 26.88591 33268 ft 424 kts 316°
2026-04-21 12:03 -24.45334 26.86446 33483 ft 423 kts 316°
2026-04-21 12:03 -24.43162 26.84333 33663 ft 423 kts 315°
2026-04-21 12:03 -24.40938 26.82166 33870 ft 421 kts 316°
2026-04-21 12:04 -24.38787 26.80080 34029 ft 422 kts 316°
2026-04-21 12:04 -24.34447 26.75862 34069 ft 425 kts 315°
2026-04-21 12:05 -24.30056 26.71840 34069 ft 426 kts 320°
2026-04-21 12:05 -24.25286 26.67979 34066 ft 422 kts 320°
2026-04-21 12:06 -24.20531 26.64162 34063 ft 424 kts 320°
2026-04-21 12:06 -24.15777 26.60331 34062 ft 424 kts 320°
2026-04-21 12:07 -24.11032 26.56504 34054 ft 424 kts 320°
2026-04-21 12:07 -24.06273 26.52664 34053 ft 425 kts 320°
2026-04-21 12:08 -24.01510 26.48825 34053 ft 426 kts 320°
2026-04-21 12:08 -23.96772 26.45011 34053 ft 426 kts 320°
2026-04-21 12:09 -23.91965 26.41141 34055 ft 426 kts 320°
2026-04-21 12:09 -23.87184 26.37301 34055 ft 427 kts 320°
2026-04-21 12:10 -23.82395 26.33457 34053 ft 427 kts 320°
2026-04-21 12:10 -23.77628 26.29653 34054 ft 427 kts 320°
2026-04-21 12:11 -23.72834 26.25832 34053 ft 426 kts 320°
2026-04-21 12:11 -23.67951 26.22127 34055 ft 429 kts 323°
2026-04-21 12:12 -23.62877 26.18687 34055 ft 430 kts 324°
2026-04-21 12:12 -23.57797 26.15255 34053 ft 429 kts 324°
2026-04-21 12:13 -23.52780 26.11747 34055 ft 428 kts 321°
2026-04-21 12:13 -23.48044 26.07840 34055 ft 427 kts 319°
2026-04-21 12:14 -23.44161 26.04508 34053 ft 427 kts 319°
2026-04-21 12:14 -23.38652 25.99885 34054 ft 428 kts 320°
2026-04-21 12:15 -23.33922 25.95992 34054 ft 427 kts 319°
2026-04-21 12:15 -23.29163 25.92096 34053 ft 428 kts 320°
2026-04-21 12:16 -23.24417 25.88209 34055 ft 427 kts 320°
2026-04-21 12:16 -23.20469 25.84976 34053 ft 428 kts 320°
2026-04-21 12:17 -23.15713 25.81078 34053 ft 428 kts 320°
2026-04-21 12:17 -23.10945 25.77177 34063 ft 429 kts 320°
2026-04-21 12:18 -23.06177 25.73282 34064 ft 430 kts 320°
2026-04-21 12:18 -23.01392 25.69377 34062 ft 430 kts 320°
2026-04-21 12:19 -22.96612 25.65477 34063 ft 430 kts 320°
2026-04-21 12:19 -22.91805 25.61583 34064 ft 431 kts 321°
2026-04-21 12:20 -22.86928 25.57791 34066 ft 432 kts 321°
2026-04-21 12:20 -22.82021 25.54017 34027 ft 432 kts 321°
2026-04-21 12:21 -22.77127 25.50231 34038 ft 433 kts 321°
2026-04-21 12:21 -22.72233 25.46434 34029 ft 433 kts 321°
2026-04-21 12:22 -22.67369 25.42656 34034 ft 433 kts 321°
2026-04-21 12:22 -22.62466 25.38859 34034 ft 434 kts 321°
2026-04-21 12:23 -22.57556 25.35061 34031 ft 434 kts 321°
2026-04-21 12:23 -22.52640 25.31261 34028 ft 434 kts 321°
2026-04-21 12:24 -22.47726 25.27464 34040 ft 434 kts 321°
2026-04-21 12:24 -22.42812 25.23670 34029 ft 434 kts 321°
2026-04-21 12:25 -22.37899 25.19881 34032 ft 434 kts 321°
2026-04-21 12:25 -22.32982 25.16093 34043 ft 434 kts 321°
2026-04-21 12:26 -22.28067 25.12310 34033 ft 434 kts 321°
2026-04-21 12:26 -22.23147 25.08527 34028 ft 434 kts 321°
2026-04-21 12:27 -22.18225 25.04745 34030 ft 433 kts 321°
2026-04-21 12:27 -22.13318 25.00965 34046 ft 435 kts 321°
2026-04-21 12:28 -22.08392 24.97189 34045 ft 434 kts 321°
2026-04-21 12:28 -22.03468 24.93422 34038 ft 434 kts 321°
2026-04-21 12:29 -21.98587 24.89685 34036 ft 433 kts 321°
2026-04-21 12:29 -21.93658 24.85912 34067 ft 437 kts 322°
2026-04-21 12:29 -21.91178 24.84016 34187 ft 438 kts 322°
2026-04-21 12:30 -21.88668 24.82097 34364 ft 437 kts 322°
2026-04-21 12:30 -21.86194 24.80200 34584 ft 436 kts 322°
2026-04-21 12:30 -21.83732 24.78311 34739 ft 435 kts 321°
2026-04-21 12:30 -21.81268 24.76419 34867 ft 434 kts 321°
2026-04-21 12:31 -21.78809 24.74534 35013 ft 434 kts 321°
2026-04-21 12:31 -21.76348 24.72649 35154 ft 434 kts 321°
2026-04-21 12:31 -21.73887 24.70765 35307 ft 434 kts 321°
2026-04-21 12:31 -21.71429 24.68883 35433 ft 434 kts 321°
2026-04-21 12:32 -21.68978 24.67008 35562 ft 434 kts 321°
2026-04-21 12:32 -21.66523 24.65131 35700 ft 433 kts 321°
2026-04-21 12:32 -21.64064 24.63252 35852 ft 432 kts 321°
2026-04-21 12:32 -21.61618 24.61384 36017 ft 431 kts 321°
2026-04-21 12:33 -21.59199 24.59537 36055 ft 433 kts 321°
2026-04-21 12:33 -21.54269 24.55774 36050 ft 435 kts 321°
2026-04-21 12:34 -21.49351 24.52024 36048 ft 433 kts 321°
2026-04-21 12:34 -21.44436 24.48280 36050 ft 433 kts 321°
2026-04-21 12:35 -21.39526 24.44543 36054 ft 433 kts 321°
2026-04-21 12:35 -21.34601 24.40797 36055 ft 434 kts 321°
2026-04-21 12:36 -21.29676 24.37054 36044 ft 434 kts 321°
2026-04-21 12:36 -21.24747 24.33311 36049 ft 434 kts 321°
2026-04-21 12:37 -21.19812 24.29567 36045 ft 435 kts 321°
2026-04-21 12:37 -21.14870 24.25819 36054 ft 435 kts 322°
2026-04-21 12:38 -21.09925 24.22076 36058 ft 436 kts 322°
2026-04-21 12:38 -21.04970 24.18328 36059 ft 436 kts 322°
2026-04-21 12:39 -21.00014 24.14578 36059 ft 437 kts 322°
2026-04-21 12:39 -20.95047 24.10828 36057 ft 437 kts 322°
2026-04-21 12:40 -20.90072 24.07072 36050 ft 438 kts 322°
2026-04-21 12:40 -20.85093 24.03317 36053 ft 439 kts 322°
2026-04-21 12:41 -20.80098 23.99555 36053 ft 439 kts 322°
2026-04-21 12:41 -20.75107 23.95800 36038 ft 438 kts 322°
2026-04-21 12:42 -20.70162 23.92079 36041 ft 438 kts 322°
2026-04-21 12:42 -20.65182 23.88335 36038 ft 438 kts 322°
2026-04-21 12:43 -20.60194 23.84588 36050 ft 439 kts 322°
2026-04-21 12:43 -20.55170 23.80816 36049 ft 439 kts 322°
2026-04-21 12:44 -20.50166 23.77064 36038 ft 440 kts 322°
2026-04-21 12:44 -20.45195 23.73340 36050 ft 440 kts 322°
2026-04-21 12:45 -20.40186 23.69588 36036 ft 440 kts 322°
2026-04-21 12:45 -20.35172 23.65834 36042 ft 440 kts 322°
2026-04-21 12:46 -20.30153 23.62082 36039 ft 440 kts 322°
2026-04-21 12:46 -20.25136 23.58337 36050 ft 441 kts 322°
2026-04-21 12:47 -20.20117 23.54591 36054 ft 441 kts 322°
2026-04-21 12:47 -20.15094 23.50844 36054 ft 441 kts 322°
2026-04-21 12:48 -20.10072 23.47102 36035 ft 441 kts 322°
2026-04-21 12:48 -20.05049 23.43361 36050 ft 441 kts 322°
2026-04-21 12:49 -20.00028 23.39622 36054 ft 440 kts 322°
2026-04-21 12:49 -19.95137 23.35740 36052 ft 440 kts 318°
2026-04-21 12:50 -19.90465 23.31508 36045 ft 441 kts 317°
2026-04-21 12:50 -19.85793 23.27265 36037 ft 442 kts 318°
2026-04-21 12:51 -19.81079 23.23076 36050 ft 441 kts 318°
2026-04-21 12:51 -19.76349 23.18922 36042 ft 441 kts 318°
2026-04-21 12:52 -19.71613 23.14772 36036 ft 442 kts 319°
2026-04-21 12:52 -19.66879 23.10627 36053 ft 441 kts 319°
2026-04-21 12:53 -19.62142 23.06478 36053 ft 442 kts 319°
2026-04-21 12:53 -19.57405 23.02332 36049 ft 441 kts 319°
2026-04-21 12:54 -19.52667 22.98188 36052 ft 441 kts 319°
2026-04-21 12:54 -19.47965 22.94075 36053 ft 441 kts 319°
2026-04-21 12:55 -19.43223 22.89936 36036 ft 442 kts 319°
2026-04-21 12:55 -19.38484 22.85803 36053 ft 441 kts 319°
2026-04-21 12:56 -19.33746 22.81670 36052 ft 441 kts 319°
2026-04-21 12:56 -19.29004 22.77541 36053 ft 442 kts 319°
2026-04-21 12:57 -19.24249 22.73402 36042 ft 442 kts 319°
2026-04-21 12:57 -19.20302 22.69965 36038 ft 442 kts 319°
2026-04-21 12:58 -19.14741 22.65146 36056 ft 443 kts 319°
2026-04-21 12:58 -19.09966 22.61030 36048 ft 443 kts 319°
2026-04-21 12:59 -19.05189 22.56906 36054 ft 443 kts 319°
2026-04-21 12:59 -19.00417 22.52786 36060 ft 443 kts 319°
2026-04-21 13:00 -18.96444 22.49358 36056 ft 443 kts 319°
2026-04-21 13:00 -18.90855 22.44535 36047 ft 444 kts 319°
2026-04-21 13:01 -18.86886 22.41099 36050 ft 444 kts 319°
2026-04-21 13:01 -18.82102 22.36960 36059 ft 445 kts 319°
2026-04-21 13:02 -18.76501 22.32121 36056 ft 446 kts 319°
2026-04-21 13:02 -18.69303 22.25909 36055 ft 446 kts 319°
2026-04-21 13:03 -18.64523 22.21787 36053 ft 447 kts 319°
2026-04-21 13:03 -18.59672 22.17611 36055 ft 448 kts 319°
2026-04-21 13:04 -18.55660 22.14158 36055 ft 448 kts 319°
2026-04-21 13:04 -18.50831 22.10002 36059 ft 448 kts 319°
2026-04-21 13:05 -18.46001 22.05848 36067 ft 449 kts 319°
2026-04-21 13:05 -18.41197 22.01721 36061 ft 449 kts 319°
2026-04-21 13:06 -18.36359 21.97570 36068 ft 449 kts 319°
2026-04-21 13:06 -18.31521 21.93425 36067 ft 448 kts 319°
2026-04-21 13:07 -18.26686 21.89281 36067 ft 448 kts 319°
2026-04-21 13:07 -18.21848 21.85134 36068 ft 449 kts 319°
2026-04-21 13:08 -18.17008 21.80988 36068 ft 449 kts 319°
2026-04-21 13:08 -18.12159 21.76839 36067 ft 449 kts 319°
2026-04-21 13:09 -18.07309 21.72697 36068 ft 450 kts 319°
2026-04-21 13:09 -18.02449 21.68555 36075 ft 449 kts 319°
2026-04-21 13:10 -17.97602 21.64405 36076 ft 448 kts 316°
2026-04-21 13:10 -17.93039 21.59950 36071 ft 448 kts 314°
2026-04-21 13:11 -17.88537 21.55417 36063 ft 448 kts 315°
2026-04-21 13:11 -17.83990 21.50924 36069 ft 450 kts 315°
2026-04-21 13:12 -17.79407 21.46458 36074 ft 450 kts 315°
2026-04-21 13:12 -17.74817 21.42003 36076 ft 450 kts 315°
2026-04-21 13:13 -17.70231 21.37554 36075 ft 449 kts 315°
2026-04-21 13:13 -17.65650 21.33109 36073 ft 448 kts 315°
2026-04-21 13:14 -17.61072 21.28669 36080 ft 448 kts 315°
2026-04-21 13:14 -17.56496 21.24233 36081 ft 449 kts 315°
2026-04-21 13:15 -17.51944 21.19825 36083 ft 448 kts 315°
2026-04-21 13:15 -17.47332 21.15365 36083 ft 448 kts 315°
2026-04-21 13:16 -17.42749 21.10934 36081 ft 448 kts 315°
2026-04-21 13:16 -17.38199 21.06538 36084 ft 448 kts 315°
2026-04-21 13:17 -17.33581 21.02080 36082 ft 448 kts 315°
2026-04-21 13:17 -17.28997 20.97655 36083 ft 448 kts 315°
2026-04-21 13:18 -17.24447 20.93267 36092 ft 448 kts 315°
2026-04-21 13:18 -17.19860 20.88850 36089 ft 448 kts 315°
2026-04-21 13:19 -17.15270 20.84432 36091 ft 448 kts 315°
2026-04-21 13:19 -17.10686 20.80022 36093 ft 448 kts 316°
2026-04-21 13:20 -17.06090 20.75606 36092 ft 449 kts 315°
2026-04-21 13:20 -17.01489 20.71183 36092 ft 449 kts 316°
2026-04-21 13:21 -16.96887 20.66763 36092 ft 449 kts 316°
2026-04-21 13:21 -16.92286 20.62348 36090 ft 450 kts 315°
2026-04-21 13:22 -16.87677 20.57932 36101 ft 450 kts 315°
2026-04-21 13:22 -16.83852 20.54265 36101 ft 450 kts 315°
2026-04-21 13:23 -16.78456 20.49097 36099 ft 450 kts 316°
2026-04-21 13:23 -16.73842 20.44686 36101 ft 450 kts 316°
2026-04-21 13:24 -16.69218 20.40265 36100 ft 451 kts 316°
2026-04-21 13:24 -16.64628 20.35877 36100 ft 451 kts 316°
2026-04-21 13:25 -16.59989 20.31448 36098 ft 452 kts 316°
2026-04-21 13:25 -16.55352 20.27024 36101 ft 452 kts 316°
2026-04-21 13:26 -16.50707 20.22598 36099 ft 453 kts 316°
2026-04-21 13:26 -16.46054 20.18169 36099 ft 454 kts 316°
2026-04-21 13:27 -16.41394 20.13732 36101 ft 454 kts 316°
2026-04-21 13:27 -16.36729 20.09289 36100 ft 454 kts 316°
2026-04-21 13:28 -16.32063 20.04853 36100 ft 454 kts 316°
2026-04-21 13:28 -16.27397 20.00419 36100 ft 454 kts 316°
2026-04-21 13:29 -16.22728 19.95988 36101 ft 454 kts 316°
2026-04-21 13:29 -16.18060 19.91558 36101 ft 455 kts 316°
2026-04-21 13:30 -16.13376 19.87118 36103 ft 456 kts 316°
2026-04-21 13:30 -16.08698 19.82681 36113 ft 455 kts 316°
2026-04-21 13:31 -16.04021 19.78249 36108 ft 455 kts 316°
2026-04-21 13:31 -15.99336 19.73819 36120 ft 455 kts 316°
2026-04-21 13:32 -15.94652 19.69387 36115 ft 455 kts 316°
2026-04-21 13:32 -15.89970 19.64959 36120 ft 455 kts 316°
2026-04-21 13:33 -15.85276 19.60525 36117 ft 456 kts 316°
2026-04-21 13:33 -15.80584 19.56096 36115 ft 456 kts 316°
2026-04-21 13:34 -15.75892 19.51670 36107 ft 456 kts 316°
2026-04-21 13:34 -15.71195 19.47241 36101 ft 456 kts 316°
2026-04-21 13:35 -15.66494 19.42816 36101 ft 456 kts 316°
2026-04-21 13:35 -15.61796 19.38393 36100 ft 456 kts 316°
2026-04-21 13:36 -15.57106 19.33979 36100 ft 456 kts 316°
2026-04-21 13:36 -15.52407 19.29561 36101 ft 456 kts 316°
2026-04-21 13:37 -15.47701 19.25138 36101 ft 457 kts 316°
2026-04-21 13:37 -15.42995 19.20716 36100 ft 457 kts 316°
2026-04-21 13:38 -15.38314 19.16325 36101 ft 457 kts 316°
2026-04-21 13:38 -15.33570 19.11878 36106 ft 457 kts 316°
2026-04-21 13:39 -15.28889 19.07489 36108 ft 457 kts 316°
2026-04-21 13:39 -15.24175 19.03073 36108 ft 457 kts 316°
2026-04-21 13:40 -15.19456 18.98655 36111 ft 458 kts 316°
2026-04-21 13:40 -15.14732 18.94235 36110 ft 458 kts 316°
2026-04-21 13:41 -15.10010 18.89823 36110 ft 457 kts 316°
2026-04-21 13:41 -15.05284 18.85409 36109 ft 458 kts 316°
2026-04-21 13:42 -15.00552 18.80993 36107 ft 458 kts 316°
2026-04-21 13:42 -14.95826 18.76582 36108 ft 458 kts 316°
2026-04-21 13:43 -14.91090 18.72164 36109 ft 458 kts 316°
2026-04-21 13:43 -14.86355 18.67750 36114 ft 459 kts 316°
2026-04-21 13:44 -14.81614 18.63334 36105 ft 459 kts 316°
2026-04-21 13:44 -14.76873 18.58920 36106 ft 459 kts 316°
2026-04-21 13:45 -14.72124 18.54503 36108 ft 459 kts 315°
2026-04-21 13:45 -14.67376 18.50090 36118 ft 460 kts 315°
2026-04-21 13:46 -14.62624 18.45673 36116 ft 460 kts 315°
2026-04-21 13:46 -14.57864 18.41253 36119 ft 460 kts 315°
2026-04-21 13:47 -14.53107 18.36836 36118 ft 460 kts 315°
2026-04-21 13:47 -14.48340 18.32415 36120 ft 461 kts 315°
2026-04-21 13:48 -14.44379 18.28745 36118 ft 461 kts 315°
2026-04-21 13:48 -14.38800 18.23577 36119 ft 461 kts 315°
2026-04-21 13:49 -14.34025 18.19157 36115 ft 462 kts 315°
2026-04-21 13:49 -14.29245 18.14734 36131 ft 462 kts 315°
2026-04-21 13:50 -14.25267 18.11055 36126 ft 462 kts 315°
2026-04-21 13:50 -14.20477 18.06630 36125 ft 462 kts 315°
2026-04-21 13:51 -14.15683 18.02204 36123 ft 463 kts 315°
2026-04-21 13:51 -14.10894 17.97780 36123 ft 463 kts 315°
2026-04-21 13:52 -14.06097 17.93352 36135 ft 463 kts 315°
2026-04-21 13:52 -14.01306 17.88936 36125 ft 463 kts 315°
2026-04-21 13:53 -13.96507 17.84519 36140 ft 463 kts 315°
2026-04-21 13:53 -13.91709 17.80099 36146 ft 463 kts 315°
2026-04-21 13:54 -13.86912 17.75681 36129 ft 463 kts 315°
2026-04-21 13:54 -13.82112 17.71266 36144 ft 463 kts 316°
2026-04-21 13:55 -13.77342 17.66880 36132 ft 463 kts 315°
2026-04-21 13:55 -13.72536 17.62462 36145 ft 463 kts 315°
2026-04-21 13:56 -13.67727 17.58047 36145 ft 464 kts 316°
2026-04-21 13:56 -13.62911 17.53627 36147 ft 464 kts 316°
2026-04-21 13:57 -13.58093 17.49209 36145 ft 464 kts 316°
2026-04-21 13:57 -13.53273 17.44788 36143 ft 464 kts 316°
2026-04-21 13:58 -13.48451 17.40373 36145 ft 464 kts 316°
2026-04-21 13:58 -13.43625 17.35955 36150 ft 464 kts 316°
2026-04-21 13:59 -13.38802 17.31541 36155 ft 465 kts 316°
2026-04-21 13:59 -13.33977 17.27122 36155 ft 465 kts 316°
2026-04-21 14:00 -13.29143 17.22703 36175 ft 465 kts 316°
2026-04-21 14:00 -13.24306 17.18284 36172 ft 465 kts 316°
2026-04-21 14:01 -13.19472 17.13871 36178 ft 465 kts 316°
2026-04-21 14:01 -13.14667 17.09486 36171 ft 465 kts 316°
2026-04-21 14:02 -13.09833 17.05072 36174 ft 466 kts 316°
2026-04-21 14:03 -13.02563 16.98446 36173 ft 466 kts 316°
2026-04-21 14:03 -12.97714 16.94032 36175 ft 466 kts 316°
2026-04-21 14:04 -12.92867 16.89619 36174 ft 466 kts 316°
2026-04-21 14:04 -12.88014 16.85203 36180 ft 467 kts 316°
2026-04-21 14:05 -12.83155 16.80785 36180 ft 467 kts 316°
2026-04-21 14:05 -12.78296 16.76368 36167 ft 467 kts 316°
2026-04-21 14:06 -12.73437 16.71952 36157 ft 467 kts 316°
2026-04-21 14:06 -12.68576 16.67539 36157 ft 467 kts 316°
2026-04-21 14:07 -12.63717 16.63133 36156 ft 467 kts 316°
2026-04-21 14:07 -12.58853 16.58721 36156 ft 467 kts 316°
2026-04-21 14:08 -12.53993 16.54314 36160 ft 467 kts 316°
2026-04-21 14:08 -12.49129 16.49906 36165 ft 467 kts 316°
2026-04-21 14:09 -12.44263 16.45498 36173 ft 467 kts 316°
2026-04-21 14:09 -12.39398 16.41094 36176 ft 467 kts 316°
2026-04-21 14:10 -12.34528 16.36693 36174 ft 467 kts 316°
2026-04-21 14:10 -12.29654 16.32286 36174 ft 467 kts 316°
2026-04-21 14:11 -12.24786 16.27887 36175 ft 467 kts 316°
2026-04-21 14:11 -12.19919 16.23484 36174 ft 467 kts 316°
2026-04-21 14:12 -12.15118 16.19135 36174 ft 467 kts 316°
2026-04-21 14:12 -12.10282 16.14757 36173 ft 467 kts 316°
2026-04-21 14:13 -12.05415 16.10354 36169 ft 467 kts 316°
2026-04-21 14:13 -12.00549 16.05953 36164 ft 467 kts 316°
2026-04-21 14:14 -11.95675 16.01549 36165 ft 468 kts 316°
2026-04-21 14:14 -11.90804 15.97151 36165 ft 467 kts 316°
2026-04-21 14:15 -11.85933 15.92755 36158 ft 467 kts 316°
2026-04-21 14:15 -11.81062 15.88360 36155 ft 468 kts 316°
2026-04-21 14:16 -11.76188 15.83964 36157 ft 467 kts 316°
2026-04-21 14:16 -11.71313 15.79570 36155 ft 467 kts 316°
2026-04-21 14:17 -11.66435 15.75178 36147 ft 468 kts 316°
2026-04-21 14:17 -11.61558 15.70787 36094 ft 468 kts 316°
2026-04-21 14:18 -11.56680 15.66395 36086 ft 468 kts 316°
2026-04-21 14:18 -11.51795 15.62001 36075 ft 469 kts 316°
2026-04-21 14:19 -11.46904 15.57606 36072 ft 469 kts 316°
2026-04-21 14:19 -11.42013 15.53210 36065 ft 469 kts 317°
2026-04-21 14:20 -11.37153 15.48844 36055 ft 469 kts 317°
2026-04-21 14:20 -11.32255 15.44445 36043 ft 469 kts 317°
2026-04-21 14:21 -11.27358 15.40049 36034 ft 469 kts 317°
2026-04-21 14:21 -11.22460 15.35655 36024 ft 470 kts 317°
2026-04-21 14:22 -11.17556 15.31260 36017 ft 470 kts 317°
2026-04-21 14:22 -11.12647 15.26860 36009 ft 470 kts 317°
2026-04-21 14:23 -11.07741 15.22468 36000 ft 470 kts 317°
2026-04-21 14:23 -11.02829 15.18070 35984 ft 470 kts 317°
2026-04-21 14:24 -10.97911 15.13668 35981 ft 471 kts 317°
2026-04-21 14:24 -10.92998 15.09273 35979 ft 470 kts 317°
2026-04-21 14:25 -10.88085 15.04880 35971 ft 470 kts 317°
2026-04-21 14:25 -10.83166 15.00486 35962 ft 471 kts 317°
2026-04-21 14:26 -10.78243 14.96088 35954 ft 471 kts 317°
2026-04-21 14:26 -10.73320 14.91690 35952 ft 471 kts 317°
2026-04-21 14:27 -10.68397 14.87297 35944 ft 471 kts 317°
2026-04-21 14:27 -10.63473 14.82901 35934 ft 471 kts 317°
2026-04-21 14:28 -10.58546 14.78511 35930 ft 471 kts 317°
2026-04-21 14:28 -10.53619 14.74123 35925 ft 471 kts 317°
2026-04-21 14:29 -10.48691 14.69731 35913 ft 471 kts 317°
2026-04-21 14:29 -10.43759 14.65339 35912 ft 471 kts 317°
2026-04-21 14:30 -10.38827 14.60951 35906 ft 472 kts 317°
2026-04-21 14:30 -10.33893 14.56560 35897 ft 472 kts 317°
2026-04-21 14:31 -10.28963 14.52175 35887 ft 471 kts 317°
2026-04-21 14:31 -10.24024 14.47793 35887 ft 472 kts 317°
2026-04-21 14:32 -10.19081 14.43411 35880 ft 472 kts 318°
2026-04-21 14:32 -10.15803 14.40505 35881 ft 472 kts 318°
2026-04-21 14:33 -10.13622 14.38570 35875 ft 472 kts 318°
2026-04-21 14:34 -10.07842 14.33445 35861 ft 472 kts 318°
2026-04-21 14:34 -10.02898 14.29068 35857 ft 472 kts 318°
2026-04-21 14:35 -9.97955 14.24688 35858 ft 472 kts 318°
2026-04-21 14:35 -9.93011 14.20312 35848 ft 472 kts 318°
2026-04-21 14:36 -9.88900 14.16674 35839 ft 472 kts 318°
2026-04-21 14:36 -9.83952 14.12297 35840 ft 472 kts 318°
2026-04-21 14:37 -9.79009 14.07925 35828 ft 472 kts 318°
2026-04-21 14:37 -9.74067 14.03557 35826 ft 472 kts 318°
2026-04-21 14:38 -9.69119 13.99185 35826 ft 472 kts 318°
2026-04-21 14:38 -9.64193 13.94837 35815 ft 473 kts 318°
2026-04-21 14:39 -9.58400 13.89722 35813 ft 473 kts 318°
2026-04-21 14:39 -9.54672 13.86428 35804 ft 473 kts 318°
2026-04-21 14:40 -9.49714 13.82055 35805 ft 473 kts 318°
2026-04-21 14:40 -9.44753 13.77681 35801 ft 473 kts 318°
2026-04-21 14:41 -9.39785 13.73302 35798 ft 474 kts 318°
2026-04-21 14:41 -9.34821 13.68929 35797 ft 474 kts 318°
2026-04-21 14:42 -9.29839 13.64543 35781 ft 474 kts 318°
2026-04-21 14:42 -9.24862 13.60159 35788 ft 475 kts 318°
2026-04-21 14:43 -9.19878 13.55771 35789 ft 475 kts 318°
2026-04-21 14:43 -9.14898 13.51391 35772 ft 475 kts 318°
2026-04-21 14:44 -9.09907 13.47000 35767 ft 475 kts 318°
2026-04-21 14:44 -9.04913 13.42612 35789 ft 476 kts 318°
2026-04-21 14:45 -8.99918 13.38222 35774 ft 476 kts 318°
2026-04-21 14:45 -8.94917 13.33830 35769 ft 476 kts 318°
2026-04-21 14:46 -8.89911 13.29439 35782 ft 477 kts 318°
2026-04-21 14:46 -8.84741 13.25247 35768 ft 477 kts 327°
2026-04-21 14:47 -8.78833 13.22289 35774 ft 478 kts 335°
2026-04-21 14:47 -8.72691 13.19694 35785 ft 479 kts 337°
2026-04-21 14:48 -8.66516 13.17155 35774 ft 479 kts 337°
2026-04-21 14:48 -8.60352 13.14604 35776 ft 479 kts 337°
2026-04-21 14:49 -8.54192 13.12035 35781 ft 479 kts 336°
2026-04-21 14:49 -8.48030 13.09459 35769 ft 479 kts 336°
2026-04-21 14:50 -8.41876 13.06887 35786 ft 479 kts 336°
2026-04-21 14:50 -8.35715 13.04315 35773 ft 479 kts 336°
2026-04-21 14:51 -8.29557 13.01745 35781 ft 479 kts 336°
2026-04-21 14:51 -8.23401 12.99177 35771 ft 479 kts 336°
2026-04-21 14:52 -8.17237 12.96605 35777 ft 479 kts 337°
2026-04-21 14:52 -8.11074 12.94034 35786 ft 479 kts 337°
2026-04-21 14:53 -8.04914 12.91466 35777 ft 480 kts 337°
2026-04-21 14:53 -7.98750 12.88898 35769 ft 479 kts 337°
2026-04-21 14:54 -7.92583 12.86329 35768 ft 480 kts 337°
2026-04-21 14:54 -7.86403 12.83757 35783 ft 481 kts 337°
2026-04-21 14:55 -7.80223 12.81184 35787 ft 481 kts 337°
2026-04-21 14:55 -7.74047 12.78612 35787 ft 480 kts 337°
2026-04-21 14:56 -7.67870 12.76042 35785 ft 480 kts 337°
2026-04-21 14:56 -7.61733 12.73488 35788 ft 480 kts 337°
2026-04-21 14:57 -7.55556 12.70921 35790 ft 480 kts 337°
2026-04-21 14:57 -7.49374 12.68352 35788 ft 480 kts 337°
2026-04-21 14:58 -7.43201 12.65788 35784 ft 480 kts 337°
2026-04-21 14:58 -7.37026 12.63225 35789 ft 480 kts 337°
2026-04-21 14:59 -7.30841 12.60656 35787 ft 481 kts 337°
2026-04-21 14:59 -7.24658 12.58086 35796 ft 481 kts 337°
2026-04-21 15:00 -7.18474 12.55520 35791 ft 481 kts 337°
2026-04-21 15:00 -7.12287 12.52953 35792 ft 481 kts 337°
2026-04-21 15:01 -7.06098 12.50388 35797 ft 481 kts 338°
2026-04-21 15:01 -6.99907 12.47822 35793 ft 481 kts 337°
2026-04-21 15:02 -6.93715 12.45253 35797 ft 481 kts 337°
2026-04-21 15:02 -6.87522 12.42683 35794 ft 482 kts 338°
2026-04-21 15:03 -6.81322 12.40114 35796 ft 482 kts 338°
2026-04-21 15:03 -6.75117 12.37543 35797 ft 483 kts 338°
2026-04-21 15:04 -6.68907 12.34968 35793 ft 483 kts 338°
2026-04-21 15:04 -6.62695 12.32394 35794 ft 483 kts 338°
2026-04-21 15:05 -6.56487 12.29818 35793 ft 483 kts 338°
2026-04-21 15:05 -6.47158 12.25953 35802 ft 483 kts 338°
2026-04-21 15:06 -6.40945 12.23383 35803 ft 483 kts 338°
2026-04-21 15:06 -6.38944 12.22555 35806 ft 483 kts 338°
2026-04-21 15:07 -6.32922 12.20063 35803 ft 483 kts 338°
2026-04-21 15:07 -6.26749 12.17510 35807 ft 483 kts 338°
2026-04-21 15:08 -6.20532 12.14937 35803 ft 483 kts 338°
2026-04-21 15:08 -6.14311 12.12365 35805 ft 483 kts 338°
2026-04-21 15:09 -6.08056 12.09782 35802 ft 483 kts 338°
2026-04-21 15:09 -6.01878 12.07227 35803 ft 483 kts 338°
2026-04-21 15:10 -5.95655 12.04655 35805 ft 483 kts 338°
2026-04-21 15:10 -5.89438 12.02085 35806 ft 483 kts 338°
2026-04-21 15:11 -5.83215 11.99515 35805 ft 483 kts 338°
2026-04-21 15:11 -5.76994 11.96948 35803 ft 483 kts 338°
2026-04-21 15:12 -5.70777 11.94381 35804 ft 483 kts 338°
2026-04-21 15:12 -5.64556 11.91813 35803 ft 483 kts 338°
2026-04-21 15:13 -5.58329 11.89245 35803 ft 484 kts 338°
2026-04-21 15:13 -5.52070 11.86664 35803 ft 484 kts 338°
2026-04-21 15:14 -5.45840 11.84094 35805 ft 484 kts 338°
2026-04-21 15:14 -5.39609 11.81523 35804 ft 484 kts 338°
2026-04-21 15:15 -5.33379 11.78955 35803 ft 484 kts 338°
2026-04-21 15:15 -5.27177 11.76403 35799 ft 485 kts 338°
2026-04-21 15:16 -5.20930 11.73830 35804 ft 485 kts 338°
2026-04-21 15:16 -5.14695 11.71258 35806 ft 484 kts 338°
2026-04-21 15:17 -5.08453 11.68687 35805 ft 485 kts 338°
2026-04-21 15:17 -5.02209 11.66106 35803 ft 485 kts 338°
2026-04-21 15:18 -4.95969 11.63525 35803 ft 485 kts 338°
2026-04-21 15:18 -4.89724 11.60945 35804 ft 486 kts 338°
2026-04-21 15:19 -4.83472 11.58366 35803 ft 486 kts 338°
2026-04-21 15:19 -4.77218 11.55784 35806 ft 486 kts 338°
2026-04-21 15:20 -4.70967 11.53205 35803 ft 486 kts 338°
2026-04-21 15:20 -4.64702 11.50622 35783 ft 486 kts 338°
2026-04-21 15:21 -4.58451 11.48043 35768 ft 486 kts 338°
2026-04-21 15:21 -4.52186 11.45457 35779 ft 487 kts 338°
2026-04-21 15:22 -4.46976 11.43310 35777 ft 487 kts 338°
2026-04-21 15:22 -4.40714 11.40727 35775 ft 487 kts 338°
2026-04-21 15:23 -4.34448 11.38146 35780 ft 487 kts 338°
2026-04-21 15:23 -4.28182 11.35565 35784 ft 486 kts 338°
2026-04-21 15:24 -4.21922 11.32984 35768 ft 487 kts 338°
2026-04-21 15:24 -4.15647 11.30404 35780 ft 487 kts 338°
2026-04-21 15:25 -4.09379 11.27822 35770 ft 487 kts 338°
2026-04-21 15:25 -4.03107 11.25237 35784 ft 487 kts 338°
2026-04-21 15:26 -3.96843 11.22657 35783 ft 487 kts 338°
2026-04-21 15:26 -3.90573 11.20078 35770 ft 487 kts 338°
2026-04-21 15:27 -3.84302 11.17498 35781 ft 487 kts 338°
2026-04-21 15:27 -3.78030 11.14916 35768 ft 487 kts 338°
2026-04-21 15:28 -3.71758 11.12335 35778 ft 487 kts 338°
2026-04-21 15:28 -3.65485 11.09754 35784 ft 487 kts 338°
2026-04-21 15:29 -3.59217 11.07176 35786 ft 487 kts 338°
2026-04-21 15:29 -3.52946 11.04596 35781 ft 488 kts 338°
2026-04-21 15:30 -3.46672 11.02014 35787 ft 488 kts 338°
2026-04-21 15:30 -3.40390 10.99432 35784 ft 488 kts 338°
2026-04-21 15:31 -3.34112 10.96851 35789 ft 488 kts 338°
2026-04-21 15:31 -3.27838 10.94272 35789 ft 487 kts 338°
2026-04-21 15:32 -3.21602 10.91710 35781 ft 487 kts 338°
2026-04-21 15:32 -3.15329 10.89135 35788 ft 487 kts 338°
2026-04-21 15:33 -3.09059 10.86558 35788 ft 487 kts 338°
2026-04-21 15:33 -3.02794 10.83981 35784 ft 487 kts 338°
2026-04-21 15:34 -2.96518 10.81403 35785 ft 487 kts 338°
2026-04-21 15:34 -2.90245 10.78826 35782 ft 487 kts 338°
2026-04-21 15:35 -2.83971 10.76248 35781 ft 487 kts 338°
2026-04-21 15:35 -2.77704 10.73675 35783 ft 488 kts 338°
2026-04-21 15:36 -2.71420 10.71093 35797 ft 488 kts 338°
2026-04-21 15:36 -2.65142 10.68516 35796 ft 488 kts 338°
2026-04-21 15:37 -2.58853 10.65935 35798 ft 488 kts 338°
2026-04-21 15:37 -2.52576 10.63357 35792 ft 488 kts 338°
2026-04-21 15:38 -2.46286 10.60775 35796 ft 488 kts 338°
2026-04-21 15:38 -2.40045 10.58214 35797 ft 488 kts 338°
2026-04-21 15:39 -2.33714 10.55617 35795 ft 489 kts 338°
2026-04-21 15:39 -2.27429 10.53039 35797 ft 488 kts 338°
2026-04-21 15:40 -2.21137 10.50458 35794 ft 488 kts 338°
2026-04-21 15:40 -2.14848 10.47876 35796 ft 488 kts 339°
2026-04-21 15:41 -2.08564 10.45299 35795 ft 489 kts 339°
2026-04-21 15:41 -2.02313 10.42738 35799 ft 489 kts 339°
2026-04-21 15:42 -1.95980 10.40146 35792 ft 489 kts 339°
2026-04-21 15:42 -1.89724 10.37583 35794 ft 489 kts 339°
2026-04-21 15:43 -1.83356 10.35204 35798 ft 488 kts 347°
2026-04-21 15:43 -1.76739 10.33722 35797 ft 487 kts 349°
2026-04-21 15:44 -1.70106 10.32318 35797 ft 488 kts 349°
2026-04-21 15:44 -1.63467 10.30905 35794 ft 488 kts 349°
2026-04-21 15:45 -1.56832 10.29490 35803 ft 488 kts 349°
2026-04-21 15:45 -1.50198 10.28075 35804 ft 487 kts 349°
2026-04-21 15:46 -1.43566 10.26661 35805 ft 487 kts 349°
2026-04-21 15:46 -1.36935 10.25246 35804 ft 488 kts 349°
2026-04-21 15:47 -1.30305 10.23832 35804 ft 487 kts 348°
2026-04-21 15:47 -1.23663 10.22414 35806 ft 488 kts 348°
2026-04-21 15:48 -1.17077 10.20807 35806 ft 488 kts 339°
2026-04-21 15:48 -1.11368 10.18381 35803 ft 488 kts 336°
2026-04-21 15:49 -1.05158 10.15633 35804 ft 488 kts 336°
2026-04-21 15:49 -0.98947 10.12895 35802 ft 488 kts 336°
2026-04-21 15:50 -0.92737 10.10163 35551 ft 486 kts 336°
2026-04-21 15:50 -0.89639 10.08801 34903 ft 488 kts 336°
2026-04-21 15:50 -0.86519 10.07429 34110 ft 493 kts 336°
2026-04-21 15:51 -0.83363 10.06043 33325 ft 498 kts 336°
2026-04-21 15:51 -0.80179 10.04643 32550 ft 501 kts 336°
2026-04-21 15:51 -0.76980 10.03236 31822 ft 503 kts 336°
2026-04-21 15:51 -0.73766 10.01823 31019 ft 507 kts 336°
2026-04-21 15:52 -0.70525 10.00398 30198 ft 510 kts 336°
2026-04-21 15:52 -0.67275 9.98969 29381 ft 512 kts 336°
2026-04-21 15:52 -0.65112 9.98019 28889 ft 513 kts 336°
2026-04-21 15:52 -0.60759 9.96105 28083 ft 509 kts 336°
2026-04-21 15:53 -0.57531 9.94685 27524 ft 505 kts 336°
2026-04-21 15:53 -0.54324 9.93276 26964 ft 501 kts 336°
2026-04-21 15:53 -0.51143 9.91878 26407 ft 498 kts 336°
2026-04-21 15:53 -0.47982 9.90489 25848 ft 494 kts 336°
2026-04-21 15:54 -0.44854 9.89113 25299 ft 489 kts 336°
2026-04-21 15:54 -0.41752 9.87749 24741 ft 485 kts 337°
2026-04-21 15:54 -0.38675 9.86397 24193 ft 481 kts 337°
2026-04-21 15:54 -0.35625 9.85058 23642 ft 477 kts 337°
2026-04-21 15:55 -0.32600 9.83728 23095 ft 473 kts 337°
2026-04-21 15:55 -0.29599 9.82409 22547 ft 470 kts 337°
2026-04-21 15:55 -0.26619 9.81099 22005 ft 466 kts 337°
2026-04-21 15:55 -0.23659 9.79799 21460 ft 463 kts 338°
2026-04-21 15:56 -0.20727 9.78510 20929 ft 459 kts 338°
2026-04-21 15:56 -0.17815 9.77230 20384 ft 455 kts 338°
2026-04-21 15:56 -0.14938 9.75967 19857 ft 449 kts 338°
2026-04-21 15:56 -0.12085 9.74714 19338 ft 446 kts 338°
2026-04-21 15:57 -0.09228 9.73529 18753 ft 444 kts 341°
2026-04-21 15:57 -0.06398 9.72449 18219 ft 439 kts 341°
2026-04-21 15:57 -0.03527 9.71375 17710 ft 433 kts 342°
2026-04-21 15:57 -0.00724 9.70323 17209 ft 428 kts 342°
2026-04-21 15:58 0.02014 9.69286 16713 ft 424 kts 342°
2026-04-21 15:58 0.04794 9.68228 16216 ft 420 kts 342°
2026-04-21 15:58 0.07515 9.67189 15722 ft 416 kts 342°
2026-04-21 15:58 0.10175 9.66171 15240 ft 413 kts 342°
2026-04-21 15:59 0.12877 9.65135 14748 ft 409 kts 342°
2026-04-21 15:59 0.15522 9.64122 14271 ft 405 kts 342°
2026-04-21 15:59 0.18145 9.63117 13773 ft 402 kts 342°
2026-04-21 15:59 0.20707 9.62135 13314 ft 398 kts 342°
2026-04-21 16:00 0.23282 9.61149 12840 ft 395 kts 343°
2026-04-21 16:00 0.25842 9.60166 12362 ft 392 kts 343°
2026-04-21 16:00 0.28358 9.59200 12151 ft 382 kts 343°
2026-04-21 16:00 0.30795 9.58262 12040 ft 369 kts 343°
2026-04-21 16:01 0.33161 9.57352 11914 ft 359 kts 343°
2026-04-21 16:01 0.35419 9.56353 11761 ft 352 kts 338°
2026-04-21 16:01 0.37590 9.55264 11466 ft 348 kts 337°
2026-04-21 16:01 0.39739 9.54167 11134 ft 346 kts 336°
2026-04-21 16:02 0.41863 9.53083 10701 ft 340 kts 337°
2026-04-21 16:02 0.43967 9.52008 9974 ft 335 kts 335°
2026-04-21 16:02 0.46020 9.50944 9161 ft 329 kts 334°
2026-04-21 16:02 0.47998 9.49929 8791 ft 312 kts 335°
2026-04-21 16:03 0.49913 9.48974 8495 ft 303 kts 337°
2026-04-21 16:03 0.51832 9.48167 8024 ft 295 kts 340°
2026-04-21 16:03 0.53725 9.47418 7469 ft 291 kts 340°
2026-04-21 16:03 0.55601 9.46667 7015 ft 288 kts 339°
2026-04-21 16:04 0.57456 9.45916 6601 ft 288 kts 339°
2026-04-21 16:04 0.59309 9.45156 6271 ft 287 kts 338°
2026-04-21 16:04 0.61150 9.44398 5970 ft 285 kts 338°
2026-04-21 16:04 0.62976 9.43643 5690 ft 281 kts 338°
2026-04-21 16:05 0.64742 9.42911 5515 ft 268 kts 338°
2026-04-21 16:05 0.66360 9.42063 5057 ft 261 kts 322°
2026-04-21 16:05 0.67455 9.40653 4498 ft 258 kts 290°
2026-04-21 16:05 0.67659 9.38923 4104 ft 250 kts 261°
2026-04-21 16:06 0.67111 9.37287 3689 ft 249 kts 244°
2026-04-21 16:06 0.66345 9.35738 3328 ft 247 kts 243°
2026-04-21 16:06 0.65439 9.34311 3060 ft 242 kts 226°
2026-04-21 16:06 0.64520 9.33687 2877 ft 244 kts 200°
2026-04-21 16:07 0.62855 9.33469 2613 ft 243 kts 176°
2026-04-21 16:07 0.60658 9.33978 2209 ft 244 kts 156°
2026-04-21 16:07 0.59191 9.34746 2009 ft 229 kts 152°
2026-04-21 16:07 0.57844 9.35430 2010 ft 204 kts 156°
2026-04-21 16:08 0.55607 9.36496 1920 ft 158 kts 155°
2026-04-21 16:08 0.54653 9.36958 1706 ft 149 kts 155°
2026-04-21 16:08 0.54025 9.37263 1574 ft 150 kts 155°
2026-04-21 16:09 0.53084 9.37720 1370 ft 151 kts 154°
2026-04-21 16:09 0.52139 9.38180 1160 ft 152 kts 154°
2026-04-21 16:09 0.51194 9.38638 955 ft 150 kts 154°
2026-04-21 16:09 0.50264 9.39090 757 ft 148 kts 154°
2026-04-21 16:10 0.49335 9.39542 567 ft 149 kts 154°
2026-04-21 16:10 0.48104 9.40149 268 ft 149 kts 153°
2026-04-21 16:10 0.47477 9.40455 143 ft 149 kts 154°
2026-04-21 16:10 0.46557 9.40897 44 ft 138 kts 154°
2026-04-21 16:11 0.45852 9.41236 37 ft 87 kts 154°
2026-04-21 16:11 0.45473 9.41419 38 ft 34 kts 154°
2026-04-21 16:11 0.45301 9.41501 38 ft 26 kts 154°
2026-04-21 16:11 0.45147 9.41574 39 ft 24 kts 154°
2026-04-21 16:12 0.44998 9.41645 38 ft 24 kts 154°
2026-04-21 16:12 0.44853 9.41715 39 ft 23 kts 154°
2026-04-21 16:12 0.44710 9.41783 38 ft 17 kts 161°
2026-04-21 16:12 0.44681 9.41775 37 ft 4 kts 202°
2026-04-21 16:13 0.44655 9.41780 37 ft 3 kts 138°
2026-04-21 16:13 0.44662 9.41794 36 ft 3 kts 34°
2026-04-21 16:13 0.44715 9.41782 38 ft 13 kts 336°
2026-04-21 16:13 0.44811 9.41736 39 ft 21 kts 334°
2026-04-21 16:14 0.44966 9.41662 38 ft 26 kts 334°
2026-04-21 16:14 0.45125 9.41585 38 ft 25 kts 334°
2026-04-21 16:14 0.45282 9.41509 38 ft 25 kts 334°
2026-04-21 16:14 0.45391 9.41457 38 ft 2 kts 334°
2026-04-21 16:15 0.45412 9.41422 38 ft 7 kts 265°
2026-04-21 16:15 0.45401 9.41365 38 ft 11 kts 263°
2026-04-21 16:15 0.45437 9.41310 38 ft 10 kts 328°
2026-04-21 16:15 0.45500 9.41279 38 ft 11 kts 334°
2026-04-21 16:16 0.45569 9.41246 38 ft 11 kts 334°
2026-04-21 16:16 0.45583 9.41227 38 ft 1 kts 270°
2026-04-21 16:16 0.45579 9.41220 38 ft 2 kts 244°
2026-04-21 16:16 0.45564 9.41188 38 ft 8 kts 244°
2026-04-21 16:17 0.45555 9.41169 38 ft 0 kts 244°